Погода в Кочетовской

Россия / Ростовская область     47°34′46″N   40°50′36″E
темп.,
°C
ветер,
м/с
пор.,
м/с
влажн.,
%
обл.,
%
осадки,
мм/ч
давл.,
гПа
погр.,
м
10 апреля, сб
сб1000:00+5с41082100 0.0 1022511
03:00+4с41181100 0.0 1021386
06:00+5с51172100 0.0 1021413
09:00+6с51076100 0.8 1021580
12:00+7с4973100 0.0 1021618
15:00+8с4871100 0.1 1021578
18:00+8с5977100 0.0 1021514
21:00+7с4886100 0.0 1021219
11 апреля, вс
вс1100:00+7ссв4987100 0.0 1021334
03:00+6с51089100 0.0 1021321
06:00+5ссв599197 0.0 1021371
09:00+7ссв6788100 0.0 1022494
12:00+9ссв5684100 0.0 1021616
15:00+11ссв5677100 0.0 1021804
18:00+11с5983100 0.0 1020346
21:00+10с61286100 0.0 1019252
12 апреля, пн
пн1200:00+10ссв71488100 0.0 1017286
03:00+10св498887 0.0 1017158
06:00+10всв3582100 0.0 1018100
09:00+14в4665100 0.0 1019423
12:00+13в3671100 0.0 1020475
15:00+14ююв3572100 0.4 1020547
18:00+12ссв2287100 0.4 102133
21:00+11всв3693100 0.6 1022169
13 апреля, вт
вт1300:00+11в2389100 0.0 102140
03:00+10всв368830 0.0 1021128
06:00+9в348927 0.0 102159
09:00+13в367894 0.0 1021350
12:00+16вюв3460100 0.0 1020722
15:00+15вюв3670100 0.0 1021640
18:00+14ю227796 0.0 102180
21:00+11зюз3490100 0.0 1022161
14 апреля, ср
ср1400:00+10зюз2489100 0.0 1022128
03:00+9з2491100 0.1 1021111
06:00+9зсз2390100 0.4 1020116
09:00+12с2279100 0.4 1020324
12:00+16ссз126599 0.0 1019931
15:00+19юв1347100 0.0 10171758
18:00+14зюз6877100 0.6 1017314
21:00+11з368453 0.6 1017143